User: anonymous
Location: Caltech
(34.1382°N, 118.1253°W)
Time: 04:26:17
(UTC-07:00)
Language:

Iridium 68 - Orbit

View from above orbital plane
View from above orbital plane
View from above satellite
View from above satellite

Ground track
Ground track

The orbit data is extracted from the following two-line orbital elements,

1 25291U 98021G   14211.37506742  .00000268  00000-0  88712-4 0  8717
2 25291 086.3983 304.0653 0002250 111.2333 248.9103 14.34219263854090
Epoch (UTC): 30 July 2014 09:00:05
Eccentricity: 0.0002250
inclination: 86.3983°
perigee height: 776 km
apogee height: 779 km
right ascension of ascending node: 304.0653°
argument of perigee: 111.2333°
revolutions per day: 14.34219263
mean anomaly at epoch: 248.9103°
orbit number at epoch: 85409

The dashed part of the orbit path shows where the satellite is in the earth's shadow,  

DLR